Location: Unspecified
(33.6682°S, 0.0000°E)
Time: 10:08:53
(UTC+00:00)

Tiros 1 despin weight - Pass Details

Date: 17 June 2019
Orbit: 594 x 643 km, 48.2° (Epoch: 16 October)

Event Time Altitude Azimuth Distance (km) Brightness Sun altitude
Rises 12:05:48 0° 313° (NW) 2,916 ? 32.9°
Reaches altitude 10° 12:08:06 10° 313° (NW) 2,021 ? 32.9°
Maximum altitude 12:12:46 81° 40° (NE) 657 ? 32.9°
Drops below altitude 10° 12:17:31 10° 126° (SE) 2,056 ? 32.8°
Sets 12:19:53 0° 127° (SE) 2,972 ? 32.8°
